AJ5TT Weather Reports


Display with metric or nautical units.
time (UTC)temp
F
wind
direction
speed
MPH
gust
MPH
rain 1hr
in
rain 24hr
in
rain mn
in
humidity
%
barometer
mb
20260505021601 72 161 1.0 3.0 0.00 0.00 0.00 78 1012.2
20260505020058 72 199 1.0 5.0 0.00 0.00 0.00 77 1012.2
20260505014618 73 148 1.0 5.0 0.00 0.00 0.00 76 1012.1
20260505013058 73 195 2.0 6.0 0.00 0.00 0.00 75 1012.1
20260505011605 73 193 1.0 5.0 0.00 0.00 0.00 75 1012.1
20260505010056 74 201 2.0 6.0 0.00 0.00 0.00 74 1012.1
20260505004557 74 189 3.0 7.0 0.00 0.00 0.00 73 1011.8
20260505003053 74 131 3.0 10.0 0.00 0.00 0.00 72 1011.7
20260505001614 75 209 3.0 8.0 0.00 0.00 0.00 70 1011.7
20260505000135 76 178 3.0 18.0 0.00 0.00 0.00 69 1012.0
20260504234612 76 168 4.0 9.0 0.00 0.00 0.00 68 1011.9
20260504233105 77 257 4.0 10.0 0.00 0.00 0.00 67 1012.1
20260504231558 78 174 3.0 10.0 0.00 0.00 0.00 67 1012.4
20260504230057 77 238 5.0 11.0 0.00 0.00 0.00 68 1012.5
20260504224610 77 197 5.0 11.0 0.00 0.00 0.00 67 1012.6
20260504223058 77 173 3.0 13.0 0.00 0.00 0.00 67 1012.9
20260504221557 76 213 3.0 8.0 0.00 0.00 0.00 67 1013.1
20260504220100 76 206 4.0 8.0 0.00 0.00 0.00 67 1013.3
20260504214600 77 191 2.0 11.0 0.00 0.00 0.00 67 1013.4
20260504213126 77 187 5.0 12.0 0.00 0.00 0.00 64 1013.5
20260504211556 78 119 4.0 10.0 0.00 0.00 0.00 63 1013.4
20260504210055 78 61 4.0 10.0 0.00 0.00 0.00 63 1013.7
20260504204554 78 213 6.0 11.0 0.00 0.00 0.00 63 1013.8
20260504203112 79 181 4.0 13.0 0.00 0.00 0.00 62 1013.9
20260504201554 79 148 4.0 11.0 0.00 0.00 0.00 62 1014.3
20260504200052 79 216 3.0 7.0 0.00 0.00 0.00 61 1014.3
20260504194602 80 195 4.0 8.0 0.00 0.00 0.00 61 1014.4
20260504193109 81 86 2.0 9.0 0.00 0.00 0.00 60 1014.8
20260504191554 79 254 3.0 12.0 0.00 0.00 0.00 61 1014.8
20260504190109 81 217 3.0 10.0 0.00 0.00 0.00 60 1014.9
20260504184606 79 215 2.0 10.0 0.00 0.00 0.00 60 1014.9
20260504183056 80 141 3.0 10.0 0.00 0.00 0.00 60 1015.1
20260504181556 80 193 4.0 13.0 0.00 0.00 0.00 60 1015.5
20260504180052 80 221 6.0 9.0 0.00 0.00 0.00 61 1015.5
20260504174601 79 71 5.0 10.0 0.00 0.00 0.00 58 1015.6
20260504173056 79 151 7.0 14.0 0.00 0.00 0.00 60 1015.9
20260504171551 78 211 4.0 11.0 0.00 0.00 0.00 58 1016.0
20260504140107 71 223 1.0 3.0 0.00 0.00 0.00 71 1016.6
20260504110116 56 0 0.0 0.0 0.00 0.00 0.00 87 1016.4
20260504100103 57 0 0.0 0.0 0.00 0.00 0.00 86 1016.6
20260504090117 57 0 0.0 0.0 0.00 0.00 0.00 85 1017.0
20260504081608 58 0 0.0 0.0 0.00 0.00 0.00 82 1017.5
20260504080106 59 0 0.0 0.0 0.00 0.00 0.00 82 1017.6
20260504044601 62 163 0.0 2.0 0.00 0.00 0.00 73 1019.4
20260504043055 61 0 0.0 2.0 0.00 0.00 0.00 75 1019.5
20260504041554 63 0 0.0 2.0 0.00 0.00 0.00 70 1019.4
20260504040106 64 159 0.0 2.0 0.00 0.00 0.00 69 1019.3
20260504034603 64 0 0.0 2.0 0.00 0.00 0.00 67 1019.6
20260504033108 64 161 0.0 2.0 0.00 0.00 0.00 67 1019.5
20260504031553 65 154 0.0 2.0 0.00 0.00 0.00 66 1019.4
20260504030055 65 177 0.0 2.0 0.00 0.00 0.00 65 1019.3
20260504024604 65 174 0.0 2.0 0.00 0.00 0.00 65 1019.4
20260504023055 66 191 1.0 2.0 0.00 0.00 0.00 63 1019.3